Terug naar catalogus

COSMOS 2251 DEB

ActiefLEO
NORAD 33934·DEBRIS·🇷🇺 Russia

Gelanceerd Jun 16, 1993 vanaf Plesetsk Cosmodrome

Loading…

Volgende Passages (komende 24 uur)

TLE

VersSource: Space-Track

Epoch: Sep 14, 2026, 12:39 UTC

1 33934U 93036EP  26257.52747324  .00001699  00000-0  35297-3 0  9993
2 33934  74.0352 294.2344 0016895 336.6622  23.3776 14.60850145927640

Volg COSMOS 2251 DEB in realtime met AllMySat

Download on the App Store